RH
18 27 22 16 12 8 7 5 4 4 5 6 9 9 8 9 8 12 20 24 29 36 34 23 26 30 36 44 48 48 45 44 41 21 17 17 20 22 29 34 36 41 46 53 58 60 58 40 44
32 27 22 13 12 7 5 4 4 4 4 9 8 8 8 8 9 9 14 28 32 36 52 26 26 30 35 44 49 51 47 47 44 21 19 19 19 20 28 35 38 44 48 50 56 61 57 32 49
33 26 17 12 12 10 6 4 4 5 7 6 6 6 7 8 10 12 22 33 36 39 60 29 28 31 34 42 48 52 50 49 48 24 19 20 18 18 24 34 40 45 41 46 53 56 44 24 45
25 20 19 15 11 7 6 5 4 5 6 6 7 8 8 9 10 15 21 30 38 40 57 52 32 33 34 40 47 52 53 52 50 31 19 22 19 19 23 31 38 40 35 43 46 49 44 25 38
22 18 13 13 12 10 8 6 6 6 6 5 6 8 7 7 8 8 20 28 38 42 56 62 41 38 39 44 48 50 53 54 52 41 20 23 21 19 22 28 34 34 31 29 30 40 26 32 38
13 13 16 13 8 7 6 7 9 8 8 7 7 7 8 9 9 13 34 35 39 46 62 68 47 39 40 46 50 49 48 54 54 50 23 24 23 20 22 27 29 32 25 25 26 30 22 37 46
17 12 10 9 8 8 8 7 7 9 11 10 8 8 8 8 19 34 44 48 41 58 79 84 44 41 42 47 51 50 47 51 55 54 28 25 24 23 22 26 26 26 24 23 23 26 29 37 46
28 20 19 13 11 9 7 6 9 10 11 11 11 10 9 12 33 34 40 66 69 78 94 96 44 38 44 52 57 56 50 51 57 57 36 28 28 27 26 28 27 24 24 19 24 32 36 35 48
30 32 30 20 15 12 8 8 8 11 14 13 12 12 11 19 29 25 33 54 79 96 96 93 76 36 49 51 54 64 57 53 61 62 43 35 37 37 34 37 30 26 25 20 30 42 44 40 43
31 31 27 19 17 17 16 16 14 13 12 14 14 15 14 14 17 20 22 26 55 79 95 77 53 41 44 58 64 67 64 58 70 68 45 42 56 41 42 46 35 32 26 23 38 53 44 42 45
31 35 27 25 24 23 22 22 22 20 20 19 20 17 15 16 16 16 15 16 20 32 71 94 65 60 54 96 96 90 76 64 83 74 52 51 88 75 88 72 48 44 30 28 50 65 50 73 78
34 29 28 28 28 26 24 26 25 25 24 24 24 24 23 22 21 18 18 16 15 20 38 78 91 94 71 96 98 98 97 70 88 94 67 66 84 88 88 87 79 61 31 32 60 63 78 86 79
32 27 26 26 26 25 25 25 25 25 26 26 26 26 26 26 25 23 21 19 18 17 26 56 84 97 92 95 96 96 98 70 88 92 81 73 83 89 86 89 90 91 41 52 87 92 90 87 82
31 28 26 26 26 27 27 25 24 23 24 26 27 28 28 27 26 26 25 23 22 19 22 34 73 93 94 73 92 93 94 89 94 93 82 82 85 90 86 86 87 88 63 78 74 84 84 86 83
26 30 24 22 24 24 23 28 24 21 22 22 22 23 24 26 27 27 26 26 25 24 22 24 52 81 91 76 88 96 92 92 90 92 83 85 88 91 89 86 86 86 70 76 76 80 85 86 84
28 27 32 19 16 15 15 24 18 17 17 16 18 19 20 21 23 24 25 25 26 25 24 25 36 75 90 96 82 93 84 86 90 91 83 86 87 89 89 86 80 73 62 73 76 82 88 85 82
25 31 25 19 13 13 15 20 14 14 15 17 18 21 22 24 23 23 24 25 25 25 26 26 30 64 86 94 94 84 87 87 83 92 88 80 91 89 86 88 75 62 49 69 76 86 86 82 79
21 17 14 13 9 9 11 11 9 9 10 11 12 12 14 18 21 23 24 24 26 27 27 28 30 52 76 85 95 77 90 91 88 90 93 79 84 90 86 92 90 83 41 48 72 78 81 77 76
15 14 14 12 10 14 16 15 13 11 12 12 12 12 11 10 10 14 20 27 26 25 27 30 33 37 62 91 90 99 89 94 90 91 93 92 74 82 86 90 91 92 51 33 45 77 81 79 78
18 21 20 17 15 16 16 16 14 14 14 14 14 15 15 15 14 13 12 14 23 28 28 30 33 35 58 79 87 97 82 84 88 89 95 91 84 71 83 86 90 84 80 54 56 62 63 77 76
23 25 25 25 20 20 21 22 17 13 13 13 14 13 14 14 15 14 13 12 22 30 31 31 33 34 36 75 84 88 98 100 100 100 98 93 95 81 71 80 89 87 88 61 46 44 44 38 48
34 25 27 29 33 41 24 49 25 19 20 23 34 42 40 51 41 34 32 18 13 25 30 33 35 37 36 65 83 84 88 96 100 99 88 89 95 98 80 84 88 88 91 80 56 52 39 40 46
32 25 29 30 40 49 48 51 39 45 68 64 60 64 66 70 72 70 75 71 65 20 22 27 35 37 38 39 71 85 82 93 98 97 88 93 96 80 92 91 90 89 94 80 58 46 36 32 41
26 31 32 33 38 75 54 53 93 81 98 92 90 94 97 92 86 88 94 90 89 80 79 58 37 33 39 41 66 74 80 91 90 97 99 92 98 99 92 93 93 94 90 87 71 47 40 41 48
33 52 74 62 64 67 25 38 96 94 91 95 97 98 99 99 100 100 99 100 99 98 98 91 73 46 38 43 66 74 82 86 83 86 96 90 95 97 96 96 94 98 99 95 86 65 51 54 60
57 57 91 84 63 53 44 89 93 70 67 82 97 100 99 99 100 100 99 100 98 99 100 100 86 66 67 53 49 74 72 76 85 84 84 92 89 83 85 98 95 98 100 100 97 86 60 60 72
68 67 52 95 63 72 92 82 54 60 76 87 96 99 99 100 100 100 100 98 99 100 100 100 100 100 82 64 64 68 74 75 74 69 75 79 84 88 71 76 94 99 100 100 100 96 74 68 72
51 47 76 64 88 82 67 71 91 95 99 99 98 98 99 99 99 99 100 98 100 100 100 100 100 99 100 98 78 68 76 90 87 79 82 81 78 78 90 90 95 99 100 100 100 96 85 78 70
80 85 84 95 87 90 72 91 100 99 99 99 99 100 100 99 100 99 99 98 100 99 100 100 100 100 99 100 100 100 97 92 94 99 99 99 91 88 91 98 96 100 100 100 100 100 94 95 95
63 99 99 93 95 76 68 94 100 100 99 98 99 100 99 100 100 94 97 100 94 99 100 99 99 99 99 100 100 100 100 100 100 100 100 100 100 99 98 98 99 98 99 100 99 99 100 98 100
Wind_Speed
5 8 8 11 8 8 15 17 3 6 6 1 3 7 11 14 10 4 3 2 7 14 14 17 17 16 17 18 21 23 22 20 18 18 19 19 18 18 18 17 17 17 16 15 13 12 13 13 15
1 7 8 12 9 14 14 15 8 6 6 1 8 10 12 12 4 6 3 4 5 12 15 20 19 18 18 19 21 24 24 22 20 20 21 20 20 19 18 18 17 16 15 15 14 14 13 13 15
6 7 12 8 13 16 16 15 9 12 5 8 10 11 15 6 2 8 4 3 5 12 15 22 21 19 19 20 22 25 26 24 22 21 23 22 21 20 20 19 17 16 15 15 15 14 13 13 15
7 13 10 11 20 20 20 19 14 4 10 9 9 9 5 11 9 4 7 6 9 12 15 21 21 21 20 22 23 25 27 26 24 24 25 24 23 21 20 19 17 16 15 14 14 14 14 15 16
10 13 13 19 22 21 19 23 23 14 20 20 14 16 19 14 15 17 11 8 12 15 15 22 21 22 22 24 25 26 27 28 27 26 27 27 25 23 21 19 18 17 15 14 13 15 15 17 17
18 17 15 19 23 20 17 19 22 22 23 24 23 23 23 18 16 10 8 9 15 16 17 21 22 23 24 25 26 27 28 30 30 30 29 29 27 25 23 20 18 17 15 14 14 16 17 18 19
18 14 22 26 27 25 22 28 16 22 23 23 22 22 23 17 7 4 8 9 15 16 17 21 21 24 24 25 26 27 28 31 33 32 31 31 29 27 24 21 19 17 15 14 16 17 19 19 20
22 15 28 23 23 29 25 26 17 18 24 24 16 9 8 7 2 5 6 7 13 16 16 18 22 25 26 26 26 26 28 31 35 36 34 32 30 28 25 22 20 17 15 15 17 18 19 19 20
22 15 20 26 27 27 28 22 19 14 19 17 16 17 16 7 8 9 10 10 11 15 18 25 21 24 23 25 27 27 28 30 36 38 36 33 32 30 27 24 21 18 17 17 18 19 19 19 19
18 17 25 25 25 25 27 25 24 26 25 27 24 20 22 19 19 19 17 15 16 16 17 22 25 24 23 24 26 30 31 33 37 41 40 36 32 33 30 27 22 20 18 19 20 19 19 19 20
27 24 26 31 36 35 33 33 33 28 27 27 24 28 28 23 26 25 24 25 22 21 20 20 25 25 25 22 24 27 34 36 37 42 43 40 29 29 27 29 26 24 21 22 22 21 22 17 15
28 34 35 35 37 37 30 38 35 37 39 35 36 34 33 34 34 34 32 30 27 26 24 22 23 24 28 24 25 26 33 38 37 40 45 42 33 30 31 29 26 27 28 26 25 24 20 16 15
26 27 36 37 37 38 38 34 37 41 39 37 38 37 37 38 39 37 36 33 32 30 28 25 25 26 28 31 27 26 32 40 37 41 45 43 37 34 36 31 28 26 29 28 25 22 19 18 16
27 34 35 39 40 41 35 41 42 45 41 41 41 41 41 41 40 41 38 37 34 33 32 29 29 30 31 34 31 31 31 38 37 41 46 45 40 36 39 35 30 28 30 28 27 22 20 19 17
22 24 24 27 34 31 31 44 34 42 39 44 44 45 47 46 43 42 40 40 38 37 36 33 36 36 36 35 34 31 32 33 40 41 46 46 43 38 40 37 34 32 33 28 28 25 23 20 18
26 27 26 22 25 26 25 43 23 33 31 33 28 30 33 34 36 38 42 40 39 38 39 38 34 39 40 37 34 33 33 37 42 41 46 46 47 41 40 41 38 37 37 36 32 30 25 24 20
19 24 27 27 19 22 21 37 24 26 32 34 35 36 37 37 38 33 33 37 38 38 38 37 41 41 43 38 35 35 37 39 39 40 43 48 48 43 42 41 41 42 41 39 36 32 27 26 23
21 25 28 30 22 28 30 36 38 38 40 39 43 44 44 41 42 41 38 38 33 36 36 37 41 40 45 44 42 39 42 37 40 42 41 47 50 46 42 38 40 44 43 43 39 36 31 27 24
21 25 30 29 26 25 29 32 38 33 38 36 39 43 47 45 45 45 45 42 41 38 33 37 39 37 48 47 45 40 41 41 42 43 44 42 47 49 45 40 40 43 47 47 45 39 35 30 27
20 24 26 28 24 22 28 31 35 33 32 40 43 43 43 45 47 46 43 47 52 42 40 36 36 39 40 46 46 47 47 48 46 47 45 44 47 49 50 45 42 48 46 47 47 47 43 33 33
18 18 22 26 27 26 28 28 23 28 31 33 37 39 38 36 36 39 43 46 47 43 39 43 39 39 43 48 45 48 40 41 42 42 47 47 46 49 52 52 43 49 50 53 52 51 48 42 40
17 21 24 22 21 18 21 17 28 22 21 21 28 33 30 29 27 22 22 37 47 43 43 39 43 40 41 44 45 49 48 43 43 48 46 51 47 47 50 54 50 52 51 52 53 51 49 40 40
23 20 21 23 21 19 30 9 9 21 26 28 28 36 32 30 30 28 26 26 25 38 47 48 40 38 40 39 47 47 51 48 43 45 48 47 51 49 51 53 56 57 53 56 56 51 47 43 38
22 17 22 21 16 12 25 14 12 13 14 21 27 34 32 29 27 27 28 27 24 18 16 19 41 45 40 40 48 48 50 47 43 41 44 48 48 51 52 54 58 60 61 59 58 53 53 48 43
18 16 8 4 3 7 15 11 10 15 18 20 19 32 34 32 26 29 34 33 31 28 19 11 18 34 38 41 40 45 50 49 47 46 43 45 49 51 54 55 59 62 60 60 59 56 57 57 55
11 10 6 7 9 19 18 7 9 20 28 30 31 31 36 34 33 41 41 35 39 36 21 11 5 10 12 23 33 41 47 44 46 43 43 43 47 51 53 57 60 62 62 59 57 56 61 59 59
11 13 17 8 18 13 5 5 20 23 23 30 32 33 36 37 38 43 48 47 37 35 37 27 8 3 5 15 18 20 32 37 39 41 40 39 41 42 47 52 58 62 64 64 59 54 60 65 64
13 11 9 5 5 5 11 20 11 19 19 18 21 30 33 38 43 42 45 52 48 47 36 42 38 23 14 5 10 20 21 23 32 34 40 40 46 47 48 52 56 60 65 64 64 58 55 63 68
11 12 6 6 5 3 4 8 10 16 16 16 21 25 31 37 39 44 46 41 43 49 48 51 51 47 34 30 19 11 13 19 24 25 34 38 42 46 49 50 50 61 61 63 66 59 57 60 62
13 19 10 4 8 12 11 9 9 9 15 19 20 26 33 32 33 37 38 39 45 43 48 50 52 49 46 43 39 33 24 16 15 17 21 34 40 43 43 49 50 54 58 64 67 62 56 59 62
Wind_Direction
343 336 305 284 253 227 261 268 10 299 246 144 13 289 331 336 327 14 81 108 140 175 205 187 184 188 191 193 194 191 188 185 182 185 181 178 176 174 173 170 167 167 163 163 160 153 150 138 137
293 298 280 274 255 262 253 247 250 255 34 92 275 260 250 256 297 292 289 165 181 187 202 192 189 191 196 197 198 196 195 193 190 187 186 183 179 176 175 175 174 174 170 169 166 160 157 145 139
326 283 276 244 244 258 273 286 308 20 354 278 273 248 275 260 289 269 346 268 201 191 196 198 196 195 201 204 203 200 199 198 199 193 189 187 182 180 179 180 180 177 176 173 171 168 162 154 148
286 258 247 250 256 267 276 288 294 229 249 225 277 282 210 254 273 251 284 246 196 200 197 212 201 203 205 211 209 205 204 202 204 202 192 191 187 184 183 181 182 179 179 178 178 171 165 158 153
269 268 264 261 257 258 269 277 286 279 279 283 263 253 276 281 265 271 267 248 213 203 195 221 211 209 213 215 213 210 210 207 206 206 198 193 191 187 187 184 183 181 184 181 179 175 164 158 155
262 249 267 266 267 262 254 254 274 281 282 282 275 267 261 274 261 253 260 246 220 206 198 232 212 209 216 218 216 213 212 211 208 208 204 197 194 191 190 186 185 184 186 183 176 172 163 159 157
257 271 268 276 280 276 280 280 263 272 285 279 287 285 283 256 257 224 262 241 216 206 202 223 211 211 214 218 218 214 213 212 209 208 206 201 196 194 192 190 185 188 187 180 174 169 164 163 160
260 275 274 268 272 276 282 280 280 283 269 278 280 271 286 229 193 236 251 233 205 205 206 212 214 215 216 214 216 215 212 214 211 206 205 205 199 197 195 194 189 191 185 179 174 168 166 168 165
258 259 263 264 268 277 280 283 257 252 267 270 265 265 264 255 261 247 234 225 212 219 207 209 212 216 215 220 218 211 212 214 212 207 205 204 200 198 197 196 193 189 187 180 174 169 168 170 170
241 254 262 275 283 286 290 287 285 278 259 258 261 257 245 259 251 245 238 240 219 222 222 221 218 222 215 220 221 209 207 209 209 206 204 202 198 197 195 198 196 189 190 182 177 171 167 166 169
259 259 272 274 280 288 290 283 277 268 257 256 256 257 254 249 255 246 248 246 243 234 222 221 222 214 220 206 209 205 205 204 202 206 205 198 193 195 187 201 194 189 190 184 179 174 171 154 168
273 269 264 269 275 280 282 283 273 265 267 267 263 260 255 254 253 251 253 252 243 242 226 224 220 211 219 206 203 201 200 200 198 201 206 196 191 194 187 201 189 189 188 188 182 180 171 169 175
274 276 278 278 277 276 280 272 271 268 269 266 264 259 257 255 254 254 253 251 249 243 235 217 216 214 210 206 204 199 203 199 197 201 207 196 193 196 188 199 188 186 187 190 180 183 176 181 181
279 283 281 280 280 278 277 273 275 268 269 265 260 257 255 252 253 255 250 246 244 240 235 222 215 215 217 212 212 196 203 201 196 200 202 197 194 198 194 202 187 186 189 190 178 187 182 186 186
280 283 281 272 272 272 280 277 261 268 265 263 261 259 258 255 252 248 251 249 244 240 234 230 212 215 221 213 214 198 204 202 197 202 202 203 194 198 197 201 187 189 190 187 178 191 188 187 189
275 272 275 272 264 266 257 266 269 279 283 283 275 271 267 265 252 250 247 250 248 245 236 230 222 210 218 210 216 202 199 199 200 204 203 203 199 198 201 203 192 200 191 185 180 192 190 185 189
263 269 272 280 276 288 271 273 284 285 288 289 284 280 283 281 276 264 260 244 245 243 238 231 226 208 213 215 205 213 194 207 204 200 205 203 202 198 205 203 198 206 200 190 185 193 192 187 188
297 295 292 293 308 307 294 286 288 288 287 285 283 284 280 273 265 264 263 257 242 238 237 233 228 219 215 211 205 217 194 205 203 202 204 207 205 199 208 198 199 207 206 201 190 196 188 190 187
302 293 289 291 300 299 289 284 285 290 286 285 290 286 282 277 270 264 258 261 257 243 245 227 227 229 215 205 208 206 207 200 204 204 203 206 207 204 206 197 203 207 210 210 205 197 187 185 187
289 286 286 290 297 299 291 288 288 291 293 292 286 284 280 277 275 273 264 253 256 246 238 241 225 232 224 214 209 205 212 204 205 206 202 202 212 209 204 200 205 210 209 210 203 203 197 186 185
285 283 290 295 305 290 279 277 284 290 293 290 283 278 276 274 272 262 260 259 249 249 234 238 233 228 225 212 214 213 212 207 207 204 200 203 207 211 208 207 203 212 213 213 211 210 207 196 197
308 306 299 292 294 301 309 301 286 290 306 333 18 345 3 359 336 317 304 262 253 247 248 238 240 226 223 215 210 214 211 213 208 206 206 209 205 211 213 209 202 215 215 218 214 211 209 200 201
297 310 291 284 279 282 290 279 25 10 354 354 13 7 7 3 4 352 349 334 336 251 251 254 238 227 223 222 211 212 209 213 209 212 210 204 211 218 215 211 207 214 217 224 220 213 209 209 212
301 295 302 285 270 255 269 263 54 16 357 3 6 5 2 360 358 351 355 347 345 319 304 259 243 240 222 223 214 215 212 210 209 207 206 207 207 208 214 216 215 217 219 225 225 215 216 219 222
338 343 314 312 305 286 307 348 42 23 17 10 2 3 2 4 9 9 17 9 359 342 315 318 259 229 223 224 215 216 216 214 210 207 202 208 208 209 212 216 220 220 219 226 230 217 216 218 218
342 4 339 320 321 305 344 62 33 30 26 19 13 4 6 -0 17 31 27 21 12 8 13 310 279 222 206 214 221 216 223 218 215 214 209 208 218 221 223 220 225 227 221 218 228 222 219 218 223
337 338 311 270 265 272 70 30 35 17 24 21 16 9 6 5 12 28 32 33 18 17 30 42 53 57 173 197 200 215 224 222 226 227 226 222 221 224 233 231 228 228 228 224 222 227 223 224 226
349 358 332 313 281 349 50 50 39 15 7 5 7 4 358 4 13 21 24 30 19 26 24 41 60 65 75 108 191 206 217 216 225 230 227 225 227 227 229 232 229 229 223 226 220 228 227 228 229
4 352 312 261 245 296 81 52 358 14 8 4 4 359 10 10 8 15 25 30 20 28 27 37 50 52 74 73 87 124 198 214 222 227 230 230 231 229 227 228 228 224 221 222 222 229 227 226 228
32 359 337 271 81 77 91 72 5 18 13 7 6 10 6 6 9 13 16 20 26 20 31 40 49 51 61 61 67 77 89 119 173 191 214 224 227 222 226 226 225 224 222 225 226 227 223 223 226